Girls - Soph Red

Girls 3 Miles
pl		name	team	time	yr
1	5187	Castillo, Makena	Marina	19:06.8	10
2	5200	Schwab, Marikay	Marina	19:19.6	10
3	4362	Reichle, Olivia	El Toro	19:25.2	10
4	4357	Murray, Sarah	El Toro	19:29.6	10
5	5461	Maldonado, Alexis	Nogales	19:46.5	10
6	4367	Templeman, Madison	El Toro	19:50.2	10
7	6636	Lyon, Hannah	Sultana	19:52.4	10
8	4766	Morales, Jessina	Heritage	20:02.6	10
9	6776	Hong, Clarissa	Temple City	20:04.8	10
10	4451	Marinez, Melissa	Escondido	20:09.8	10
11	6010	Uribe, Jalen	San Jacinto	20:22.2	10
12	4161	Landers, Paige	Durango (NV)	20:22.8	10
13	6164	Holmstrom, Lusa	Santa Monica	20:32.1	10
14	5994	Castrejon, Damara	San Jacinto	20:35.3	10
15	5457	Cruz, Areli	Nogales	20:39.6	10
16	4341	Dominguez, Paulette	El Toro	20:50.2	10
17	6289	Hernandez, Kaylee	Santiago-GG	20:51.2	10
18	4534	Faz, Hailey	Gila Ridge AZ	20:53.8	10
19	7267	Goiset, Nadia	West Torrance	20:55.8	10
20	4438	Anderson, Olivia	Escondido	20:57.9	10
21	3738	Lewis, Quinn	Buena (Vent)	20:58.7	10
22	4366	Sveda, Gia	El Toro	20:58.8	10
23	4350	Gregory, Gillian	El Toro	20:59.5	10
24	5997	Guevara, Erica	San Jacinto	21:00.3	10
25	5920	Cho, Bonnie	Rosemead	21:00.9	10
26	4164	Ramos Vargas, Litzy	Durango (NV)	21:01.7	10
27	7284	Obata, Mitsuki	West Torrance	21:06.6	10
28	5656	Ortega, Ruby	Patriot	21:07.4	10
29	7262	Crump, Olivia	West Torrance	21:09.1	10
30	5195	Mone, Wendy	Marina	21:12.1	10
31	6171	Masterson, Riley	Santa Monica	21:12.5	10
32	14560	Blanco, Alyssa	Diamond Ranch	21:17.1	10
33	5186	Carlyle, Kaitlyn	Marina	21:20.5	10
34	4958	Ibarra, Andrea	Katella	21:25.8	10
35	7261	Crump, Emma	West Torrance	21:27.5	10
36	7276	Lee, Karah	West Torrance	21:32.2	10
37	5923	Han, Selina	Rosemead	21:32.3	10
38	7283	Nagashima, Konatsu	West Torrance	21:33.8	10
39	6890	Kikuno, Allison	Torrance	21:36.7	10
40	7256	Brown, Madeline	West Torrance	21:42.1	10
41	4536	Gramley, Samantha	Gila Ridge AZ	21:42.7	10
42	5930	Morales, Marisol	Rosemead	21:48.2	10
43	4765	Mirabel, Sofia	Heritage	21:49.8	10
44	4110	Cuevas, Juliana	Downey	21:52.2	10
45	6860	Alejandrino, Muriel	Torrance	21:54.1	10
46	6155	Fisher, Lyrick	Santa Monica	22:04.3	10
47	6641	Sterbenz, Victoria	Sultana	22:08.8	10
48	6786	Liang, Meagan	Temple City	22:11.9	10
49	4371	Zertuche, Abigail	El Toro	22:12.8	10
50	6000	Lopez Alvarez, Helen	San Jacinto	22:13.5	10
51	3672	Robinson, Abby	Basic (NV)	22:14.3	10
52	5069	Ledesman, Jaelynn	La Mirada	22:18.3	10
53	3729	Garcia, Brenda	Buena (Vent)	22:19.6	10
54	3668	Ernst, Samantha	Basic (NV)	22:23.3	10
55	4342	Dorame, Megan	El Toro	22:23.4	10
56	3732	Herrera, Genevieve	Buena (Vent)	22:24.6	10
57	5597	Richardson, Madison	Paloma Valley	22:34.2	10
58	5035	Sanchez, Lesli	La Habra	22:34.4	10
59	3673	Shewmaker, Jessica	Basic (NV)	22:35.8	10
60	5310	Scott, Amanda	Mayfair	22:36.6	10
61	5184	Austin, Elyse	Marina	22:37.4	10
62	7275	Larue, Lauren	West Torrance	22:38.4	10
63	6795	Ong, Serena	Temple City	22:38.6	10
64	5462	Mateo, Jarely	Nogales	22:38.8	10
65	7072	Chang, Sarah	University	22:38.8	10
66	6633	Anderson, Aurora	Sultana	22:39.2	10
67	3865	Herrera, Yaneli	Century	22:39.9	10
68	7479	Worrell, Kaylee	Yorba Linda	22:40.6	10
69	6886	Hirano, Allyson	Torrance	22:41.7	10
70	7257	Bunch, Hailey	West Torrance	22:42.1	10
71	3869	Portillo, Paulina	Century	22:42.9	10
72	6888	Kaku, Alyssa	Torrance	22:44.5	10
73	5578	Castellon, Ariana	Paloma Valley	22:45.7	10
74	6891	Koepp, Brenley	Torrance	22:46.1	10
75	7302	Yoon, Lauren	West Torrance	22:49.8	10
76	7443	Bremer, Sydney	Yorba Linda	22:50.2	10
77	7454	Cook, Kendall	Yorba Linda	22:50.6	10
78	4447	Esparza, Elenna	Escondido	22:50.8	10
79	4922	Cardona, Alyssa	Jurupa Hills	22:55.3	10
80	4338	Craycraft, Natalie	El Toro	22:56.5	10
81	7464	Karcher, Emma	Yorba Linda	22:58.1	10
82	7253	Bandara, Chaturika	West Torrance	22:58.5	10
83	7084	Kocagil, Reyya	University	23:00.1	10
84	14917	Morrissey, Liana	FlintridgePrp	23:00.3	10
85	4584	Pellegrini, Chloe	Glendale	23:02.8	10
86	4583	Orozco, Celeste	Glendale	23:03.1	10
87	6887	Jung, Erin	Torrance	23:03.6	10
88	4764	Medina, Brianna	Heritage	23:03.6	10
89	5933	Pablo, Daya	Rosemead	23:07.8	10
90	5921	Dinh, Angie	Rosemead	23:07.8	10
91	4351	Irvani, Kaya	El Toro	23:10.5	10
92	6889	Kaku, Erin	Torrance	23:14.4	10
93	7471	Mandley, Kayden	Yorba Linda	23:15.6	10
94	7079	Hanssler, Eleanor	University	23:16.1	10
95	7092	Maeda, Kortney	University	23:16.6	10
96	6280	Amador, Emily	Santiago-GG	23:17.3	10
97	7081	Hurwitz, Ariel	University	23:17.3	10
98	7002	Carranza, Yoselin	Tustin	23:18.8	10
99	5308	Rosales, Mell	Mayfair	23:23.1	10
100	5328	Morrison, Steven	Mayfair	23:24.7	10
101	5572	Abacherli, Ellice	Paloma Valley	23:25.9	10
102	5648	Changlee, Dominique	Patriot	23:29.6	10
103	3750	Sarak, Emily	Buena (Vent)	23:31.8	10
104	7452	Colburn, Averi	Yorba Linda	23:32.4	10
105	3722	Ewing, Ashlynn	Buena (Vent)	23:32.8	10
106	3734	Jackson, Hayley	Buena (Vent)	23:33.8	10
107	5980	Motz, Lisa	Royal	23:35.3	10
108	6554	Sanchez, Emmaly	SouthTorrance	23:44.3	10
109	5207	Weir, Catherine	Marina	23:45.1	10
110	3871	Stephanie, Vargas	Century	23:46.1	10
111	6914	Watling, Alicia	Torrance	23:50.7	10
112	6163	Hatch, Olivia	Santa Monica	23:54.3	10
113	5940	Ton, Caroline	Rosemead	23:55.9	10
114	6997	Berrios, Carmen	Tustin	23:58.9	10
115	6261	Perez, Crystal	Santee Ed	24:00.8	10
116	4923	Cruz, Demesia	Jurupa Hills	24:00.8	10
117	4959	Jasso, Sarahi	Katella	24:04.3	10
118	6553	Sakaguchi, Keila	SouthTorrance	24:04.8	10
119	6783	Li, Carmen	Temple City	24:06.9	10
120	4504	Pang, Grace	Fullerton Un	24:07.1	10
121	7007	Ho, Tu	Lan Tustin	24:08.9	10
122	6303	Toxcoyoa, Griselda	Santiago-GG	24:10.1	10
123	6994	Aguilar, Andrea	Tustin	24:11.1	10
124	3853	Argueta, Genesis	Century	24:13.9	10
125	4365	Sahagun, Lily	El Toro	24:17.8	10
126	6998	Cabrera, Brenda	Tustin	24:25.9	10
127	4464	Yanez, Tiffany	Escondido	24:35.5	10
128	3731	Gracia, Savannah	Buena (Vent)	24:36.5	10
129	7008	Lerner, Sabine	Tustin	24:38.9	10
130	3743	Osborn, Madeline	Buena (Vent)	24:41.3	10
131	6260	Orea, Maria	Santee Ed	24:43.0	10
132	6292	Ngac, Kristen	Santiago-GG	24:53.7	10
133	5112	Lam, Gretchen	La Quinta Wst	24:53.8	10
134	5124	Tran, Kiana	La Quinta Wst	24:53.9	10
135	338	Patterson, Alex	Bonita	24:54.1	10
136	4111	Garcia, Valerie	Downey	25:01.9	10
137	6528	Cai, Yiyi	SouthTorrance	25:04.5	10
138	6295	Perez, Priscilla	Santiago-GG	25:10.6	10
139	7087	Li, Laura	University	25:11.3	10
140	3856	Cecilia, Salmeron	Century	25:14.8	10
141	5067	Hernandez, Abbie	La Mirada	25:15.2	10
142	4337	Cortes-sarabi, Arely	El Toro	25:15.3	10
143	5072	Ramirez, Daniela	La Mirada	25:20.8	10
144	7301	Yee, Florina	West Torrance	25:22.7	10
145	5464	Rodriguez, Arianna	Nogales	25:23.9	10
146	7066	Bernecker, Lilly	University	25:26.8	10
147	6006	Salazar, Joanny	San Jacinto	25:28.1	10
148	6796	Reyes, Rihanna	Temple City	25:28.6	10
149	4926	Gomez, Cheyenne	Jurupa Hills	25:29.8	10
150	7459	Hernandez, Sheccid	Yorba Linda	25:43.8	10
151	7014	Ponce, Lorisa	Tustin	25:50.9	10
152	7064	Amir Dastmalchi, Nikki	University	25:53.5	10
153	6771	Chen, Cathy	Temple City	25:55.3	10
154	7005	Garcia, Angelie	Tustin	25:56.3	10
155	4930	Proa, Heidi	Jurupa Hills	25:56.7	10
156	4927	Herrera, Alejandra	Jurupa Hills	25:57.4	10
157	5108	Cuamani, Rosemary	La Quinta Wst	25:58.7	10
158	3851	Aguilar, Vanessa	Century	25:59.3	10
159	5118	Nguyen, Cecile	La Quinta Wst	26:02.2	10
160	6789	Lin, Carrie	Temple City	26:05.8	10
161	5306	Rinehart, Brooke	Mayfair	26:23.5	10
162	4450	Lucas, Raquel	Escondido	26:27.3	10
163	5121	Takao, Nicole	La Quinta Wst	26:30.2	10
164	5487	Tognetti, Serenity	Norco	26:39.9	10
165	7016	Rodriguez, Diane	Tustin	26:42.2	10
166	4334	Christman, Crishelle	El Toro	26:48.6	10
167	6778	Hu, Hannah	Temple City	26:51.3	10
168	6770	Cen, Harmony	Temple City	26:51.7	10
169	4121	Salinas, Brittany	Downey	26:58.5	10
170	4363	Rezapour, Rouja	El Toro	27:49.1	10
171	7440	Arrieta, Emily	Yorba Linda	28:19.7	10
172	6259	Mendez, Valerie	Santee Ed	28:42.4	10
173	4359	Orozco-galvan, Jimena	El Toro	30:47.3	10
174	5890	Aldrete, Isabel	Rosary	33:14.7	10